Butte, MT

12:47 AM MDT on June 25, 2017 (GMT -0600)
Mooney

Weather History for KBTM - April, 2014

Change the Weather History Date:

Monday, April 7, 2014

  Actual Average Record
Temperature  
Mean Temperature 43 °F 37 °F  
Max Temperature 56 °F 49 °F 71 °F (1930)
Min Temperature 30 °F 25 °F -6 °F (1982)
Degree Days  
Heating Degree Days 22 28  
Month to date heating degree days 196 200  
Since 1 July heating degree days 7642 7811  
Cooling Degree Days 0 0  
Month to date cooling degree days 0 0  
Year to date cooling degree days 0 0  
Moisture  
Dew Point 26 °F    
Average Humidity 55    
Maximum Humidity 78    
Minimum Humidity 32    
Precipitation  
Precipitation 0.00 in 0.04 in 0.60 in (1897)
Month to date precipitation T 0.24  
Year to date precipitation 2.11 1.90  
Sea Level Pressure  
Sea Level Pressure 30.23 in    
Wind  
Wind Speed 9 mph (NW)    
Max Wind Speed 25 mph    
Max Gust Speed 33 mph    
Visibility 10 miles    
Events      
T = Trace of Precipitation, MM = Missing Value Source: NWS Daily Summary

Daily Weather History Graph

Daily Weather History Graph

Search for Another Location

Airport or City:

Trip Planner

Search our weather history database for the weather conditions in past years. The results will help you decide how hot, cold, wet, or windy it might be!

Date:

Astronomy

Apr. 07, 2014 Rise Set
Actual Time 6:58 AM MDT 8:06 PM MDT
Civil Twilight 6:27 AM MDT 8:37 PM MDT
Nautical Twilight 5:51 AM MDT 9:14 PM MDT
Astronomical Twilight 5:12 AM MDT 9:53 PM MDT
Moon 12:49 PM MDT (4/7) 2:54 AM MDT (4/7)
Length of Visible Light 14h 09m
Length of Day
13h 08m
First Quarter, 54% of the Moon is Illuminated
Apr 7
First Quarter
Apr 15
Full
Apr 22
Last Quarter
Apr 29
New
May 6
First Quarter

Hourly Weather History & Observations

Time (MDT) Temp. Windchill Dew Point Humidity Pressure Visibility Wind Dir Wind Speed Gust Speed Precip Events Conditions
12:53 AM 37.9 °F 30.0 °F 23.0 °F 55% 30.18 in 10.0 mi WNW 12.7 mph - N/A   Partly Cloudy
1:53 AM 37.0 °F 31.6 °F 24.1 °F 59% 30.19 in 10.0 mi NW 6.9 mph - N/A   Scattered Clouds
2:53 AM 36.0 °F - 23.0 °F 59% 30.20 in 10.0 mi Calm Calm - N/A   Clear
3:53 AM 30.0 °F 25.2 °F 24.1 °F 79% 30.22 in 10.0 mi South 4.6 mph - N/A   Clear
4:53 AM 30.0 °F - 21.9 °F 72% 30.23 in 10.0 mi Calm Calm - N/A   Scattered Clouds
5:53 AM 30.9 °F - 23.0 °F 72% 30.24 in 10.0 mi Calm Calm - N/A   Overcast
6:53 AM 32.0 °F - 24.1 °F 73% 30.25 in 10.0 mi Calm Calm - N/A   Overcast
7:53 AM 33.1 °F 30.0 °F 25.0 °F 72% 30.27 in 10.0 mi NNW 3.5 mph - N/A   Overcast
8:53 AM 39.0 °F 32.8 °F 26.1 °F 60% 30.26 in 10.0 mi NNE 9.2 mph - N/A   Overcast
10:53 AM 48.0 °F - 27.0 °F 44% 30.23 in 10.0 mi WNW 15.0 mph - N/A   Clear
11:53 AM 50.0 °F - 27.0 °F 41% 30.22 in 10.0 mi NW 23.0 mph 32.2 mph N/A   Scattered Clouds
12:53 PM 48.9 °F - 27.0 °F 43% 30.22 in 10.0 mi WNW 18.4 mph 31.1 mph N/A   Scattered Clouds
1:53 PM 53.6 °F - 26.6 °F 35% 30.24 in 10.0 mi WNW 20.7 mph 26.5 mph N/A   Overcast
2:53 PM 55.0 °F - 27.0 °F 34% 30.20 in 10.0 mi NW 18.4 mph 29.9 mph N/A   Mostly Cloudy
3:53 PM 55.0 °F - 26.1 °F 33% 30.23 in 10.0 mi WNW 20.7 mph 28.8 mph N/A   Clear
4:53 PM 55.0 °F - 27.0 °F 34% 30.22 in 10.0 mi WNW 12.7 mph 29.9 mph N/A   Scattered Clouds
5:53 PM 55.0 °F - 26.1 °F 33% 30.21 in 10.0 mi WNW 12.7 mph - N/A   Clear
6:53 PM 53.1 °F - 26.1 °F 35% 30.22 in 10.0 mi NW 11.5 mph - N/A   Clear
7:53 PM 48.9 °F - 28.0 °F 44% 30.23 in 10.0 mi West 8.1 mph - N/A   Clear
8:53 PM 45.0 °F 41.8 °F 28.0 °F 52% 30.23 in 10.0 mi NNW 5.8 mph - N/A   Clear
9:53 PM 39.9 °F - 28.0 °F 63% 30.24 in 10.0 mi Calm Calm - N/A   Clear
11:53 PM 32.0 °F 28.7 °F 27.0 °F 82% 30.25 in 10.0 mi SE 3.5 mph - N/A   Clear